Iron Mountain, MI

3:42 AM CDT on October 01, 2016 (GMT -0500)
Ford

Weather History for KIMT - June, 2013

Change the Weather History Date:

Tuesday, June 18, 2013

  Actual Average Record
Temperature  
Mean Temperature 54 °F -  
Max Temperature 73 °F 75 °F 90 °F (1933)
Min Temperature 35 °F 51 °F 35 °F (2013)
Degree Days  
Heating Degree Days 12    
Growing Degree Days 4 (Base 50)    
Moisture  
Dew Point 38 °F    
Average Humidity 63    
Maximum Humidity 100    
Minimum Humidity 28    
Precipitation  
Precipitation 0.00 in - - ()
Sea Level Pressure  
Sea Level Pressure 30.11 in    
Wind  
Wind Speed 3 mph (NNE)    
Max Wind Speed 8 mph    
Max Gust Speed -    
Visibility 8 miles    
Events      
Averages and records for this station are not official NWS values.
T = Trace of Precipitation, MM = Missing Value Source: NWS Daily Summary

Daily Weather History Graph

Daily Weather History Graph

Search for Another Location

Airport or City:

Trip Planner

Search our weather history database for the weather conditions in past years. The results will help you decide how hot, cold, wet, or windy it might be!

Date:

Astronomy

Jun. 18, 2013 Rise Set
Actual Time 5:01 AM CDT 8:45 PM CDT
Civil Twilight 4:23 AM CDT 9:23 PM CDT
Nautical Twilight 3:31 AM CDT 10:15 PM CDT
Astronomical Twilight 2:20 AM CDT 11:26 PM CDT
Moon 3:17 PM CDT (6/18) 1:24 AM CDT (6/18)
Length of Visible Light 17h 00m
Length of Day
15h 43m
Waxing Gibbous, 71% of the Moon is Illuminated
Jun 18
Waxing Gibbous
Jun 23
Full
Jun 29
Last Quarter
Jul 8
New
Jul 15
First Quarter

Hourly Weather History & Observations

Time (CDT) Temp. Windchill Dew Point Humidity Pressure Visibility Wind Dir Wind Speed Gust Speed Precip Events Conditions
12:54 AM 41.0 °F 38.0 °F 37.9 °F 89% 30.09 in 10.0 mi North 4.6 mph - N/A   Clear
1:54 AM 37.9 °F 35.5 °F 36.0 °F 93% 30.10 in 10.0 mi North 3.5 mph - N/A   Clear
2:54 AM 37.9 °F 35.5 °F 36.0 °F 93% 30.10 in 10.0 mi NNW 3.5 mph - N/A   Clear
3:54 AM 37.9 °F 35.5 °F 36.0 °F 93% 30.11 in 2.0 mi North 3.5 mph - N/A   Clear
4:02 AM 37.4 °F - 35.6 °F 93% 30.08 in 1.8 mi Calm Calm - N/A   Clear
4:06 AM 37.4 °F - 35.6 °F 93% 30.08 in 3.0 mi Calm Calm - N/A   Clear
4:32 AM 35.6 °F 32.8 °F 35.6 °F 100% 30.09 in 2.5 mi North 3.5 mph - N/A   Partly Cloudy
4:40 AM 37.4 °F - 35.6 °F 93% 30.09 in 1.8 mi Calm Calm - N/A   Clear
4:42 AM 37.4 °F - 35.6 °F 93% 30.09 in 3.0 mi Calm Calm - N/A   Clear
4:54 AM 37.0 °F 34.5 °F 36.0 °F 96% 30.12 in 10.0 mi NNW 3.5 mph - N/A   Clear
5:54 AM 41.0 °F 39.0 °F 37.9 °F 89% 30.12 in 10.0 mi NW 3.5 mph - N/A   Clear
6:54 AM 46.0 °F 43.9 °F 39.0 °F 76% 30.13 in 10.0 mi North 4.6 mph - N/A   Clear
7:54 AM 53.1 °F - 41.0 °F 64% 30.14 in 10.0 mi North 4.6 mph - N/A   Clear
8:54 AM 57.9 °F - 39.9 °F 51% 30.15 in 10.0 mi East 3.5 mph - N/A   Clear
9:54 AM 62.1 °F - 39.9 °F 44% 30.15 in 10.0 mi ENE 6.9 mph - N/A   Clear
10:54 AM 66.0 °F - 39.0 °F 37% 30.15 in 10.0 mi NNE 8.1 mph - N/A   Clear
11:54 AM 68.0 °F - 39.0 °F 35% 30.15 in 10.0 mi ENE 6.9 mph - N/A   Clear
12:54 PM 68.0 °F - 37.9 °F 33% 30.14 in 10.0 mi SW 6.9 mph - N/A   Clear
1:54 PM 70.0 °F - 37.9 °F 31% 30.13 in 10.0 mi South 4.6 mph - N/A   Scattered Clouds
2:54 PM 70.0 °F - 36.0 °F 29% 30.12 in 10.0 mi Calm Calm - N/A   Clear
3:54 PM 72.0 °F - 37.0 °F 28% 30.12 in 10.0 mi Calm Calm - N/A   Clear
4:54 PM 71.1 °F - 36.0 °F 28% 30.11 in 10.0 mi Calm Calm - N/A   Clear
5:54 PM 70.0 °F - 35.1 °F 28% 30.10 in 10.0 mi Calm Calm - N/A   Clear
6:54 PM 69.1 °F - 41.0 °F 36% 30.10 in 10.0 mi SSE 6.9 mph - N/A   Clear
7:54 PM 64.9 °F - 39.9 °F 40% 30.09 in 10.0 mi SSE 5.8 mph - N/A   Clear
8:54 PM 59.0 °F - 41.0 °F 51% 30.10 in 10.0 mi SE 4.6 mph - N/A   Clear
9:54 PM 53.1 °F - 41.0 °F 64% 30.11 in 10.0 mi Calm Calm - N/A   Clear
10:54 PM 52.0 °F - 39.9 °F 63% 30.11 in 10.0 mi Calm Calm - N/A   Clear
11:54 PM 48.0 °F - 41.0 °F 77% 30.11 in 10.0 mi Calm Calm - N/A   Clear